Flag for Morocco Weather past 2 weeks in Tangier, Morocco

Now
55 °F

Passing clouds.


Feels Like: 55 °F
Forecast: 46 / 64 °F
Wind: 5 mph from Southwest

Location: Tanger Aerodrome

Current Time: Mar 1, 2015 at 1:41:11 AM

Latest Report: Mar 1, 2015 at 1:00 AM


Visibility: N/A

Pressure: 30.33 "Hg

Humidity: 82%

Dew point: 50 °F

Location of TangierLocation

Historic Weather in Tangier — Graph

°F

Tangier temperature yesterday

Maximum temperature yesterday: 61 °F (at 1:00 PM)
Minimum temperature yesterday: 50 °F (at 8:00 PM)
Average temperature yesterday: 55 °F

Past Weeks' High & Low Weather Summary

 TemperatureHumidityPressure
High63 °F (Feb 20, 1:00 PM)94% (Feb 14, 1:30 AM)30.51 "Hg (Feb 14, 1:30 AM)
Low41 °F (Feb 25, 7:30 AM)52% (Feb 20, 1:00 PM)29.89 "Hg (Feb 21, 4:00 PM)
Average55 °F78%30.24 "Hg
* Reported Midnight between Feb 13 and Feb 14 — Mar 1 12:30 AM, Tangier, Weather by CustomWeather, © 2015

Note: Actual official high and low records may vary slightly from our data, if they occured in-between our weather recording intervals... More about our weather records

Advertising

Tangier weather history for previous 24 hours

 ConditionsComfort  
Time TempWeatherWind HumidityBarometerVisibility
12:30 AM
Sun, Mar 1
54 °FPassing clouds.7 mph82%30.33 "Hg5 mi
12:00 AM54 °FPassing clouds.9 mph82%30.33 "Hg5 mi
11:30 PM
Sat, Feb 28
54 °FPassing clouds.9 mph82%30.36 "Hg5 mi
11:00 PM54 °FPassing clouds.6 mph82%30.36 "Hg5 mi
10:30 PM54 °FPassing clouds.7 mph82%30.36 "Hg5 mi
10:00 PM52 °FPassing clouds.3 mph88%30.36 "Hg5 mi
9:30 PM54 °FPassing clouds.6 mph82%30.36 "Hg5 mi
9:00 PM50 °FPassing clouds.No wind82%30.36 "Hg5 mi
8:30 PM52 °FPassing clouds.2 mph82%30.33 "Hg5 mi
8:00 PM50 °FPassing clouds.No wind82%30.33 "Hg5 mi
7:30 PM52 °FPassing clouds.3 mph82%30.33 "Hg5 mi
7:00 PM54 °FPassing clouds.3 mph82%30.33 "Hg5 mi
6:30 PM54 °FPassing clouds.6 mph82%30.33 "HgN/A
6:00 PM55 °FPassing clouds.6 mph82%30.33 "HgN/A
5:30 PM55 °FPassing clouds.8 mph77%30.30 "HgN/A
5:00 PM57 °FPartly sunny.10 mph72%30.30 "HgN/A
4:30 PM57 °FPartly sunny.13 mph77%30.30 "HgN/A
4:00 PM59 °FPartly sunny.13 mph72%30.30 "HgN/A
3:30 PM59 °FPartly sunny.14 mph72%30.30 "HgN/A
3:00 PM59 °FPartly sunny.14 mph72%30.30 "HgN/A
2:30 PM59 °FPartly sunny.14 mph72%30.30 "HgN/A
2:00 PM59 °FScattered clouds.15 mph72%30.30 "HgN/A
1:30 PM61 °FScattered clouds.14 mph72%30.30 "HgN/A
1:00 PM61 °FScattered clouds.15 mph68%30.33 "HgN/A
12:30 PM59 °FPartly sunny.15 mph77%30.33 "HgN/A
12:00 PM59 °FPartly sunny.14 mph77%30.33 "HgN/A
11:30 AM59 °FPartly sunny.13 mph72%30.36 "HgN/A
11:00 AM59 °FPartly sunny.13 mph77%30.33 "HgN/A
10:30 AM57 °FPartly sunny.12 mph77%30.33 "HgN/A
10:00 AM57 °FPartly sunny.10 mph77%30.33 "HgN/A
9:30 AM57 °FPartly sunny.9 mph82%30.33 "Hg5 mi
9:00 AM55 °FPartly sunny.8 mph82%30.33 "Hg5 mi
8:30 AM55 °FPartly sunny.9 mph82%30.33 "Hg5 mi
8:00 AM54 °FPartly sunny.8 mph88%30.30 "Hg5 mi
7:30 AM54 °FPartly sunny.9 mph88%30.30 "Hg5 mi
7:00 AM54 °FPartly sunny.7 mph88%30.30 "Hg5 mi
6:30 AM54 °FPartly sunny.7 mph88%30.30 "Hg5 mi
6:00 AM54 °FPartly sunny.5 mph88%30.30 "Hg5 mi
5:30 AM52 °FPassing clouds.3 mph88%30.30 "Hg5 mi
5:00 AM54 °FPassing clouds.7 mph88%30.27 "Hg5 mi
4:30 AM54 °FPassing clouds.7 mph88%30.27 "Hg5 mi
4:00 AM54 °FPassing clouds.8 mph88%30.27 "Hg5 mi
3:30 AM54 °FPassing clouds.9 mph88%30.27 "Hg5 mi
3:00 AM54 °FPassing clouds.9 mph88%30.27 "Hg5 mi
2:30 AM54 °FPassing clouds.3 mph94%30.30 "Hg5 mi
2:00 AM54 °FPassing clouds.5 mph88%30.30 "Hg5 mi
1:00 AM54 °FPassing clouds.3 mph88%30.33 "Hg5 mi
Weather by CustomWeather, © 2015

See weather overviewHow to use our weather pages